Temperature
8 7 6 7 7 8 8 8 8 9 10 10 9 9 9 9 9 9 9 10 9 9 9 9 9 9 10 10 10 10 10 10 11 11 11 11 11 11 11 11 11 11 11 11
7 5 7 8 8 7 7 7 7 8 9 9 8 8 9 9 9 9 9 9 9 8 8 8 8 8 9 9 9 9 9 10 10 10 10 10 11 11 11 11 11 11 11 11
5 6 7 7 7 6 7 6 7 7 8 8 8 7 8 8 8 8 8 8 8 7 7 7 7 7 7 8 8 9 9 9 9 10 10 10 10 10 10 10 10 10 11 11
6 7 7 6 6 6 6 7 7 6 6 5 7 5 7 7 7 7 7 6 6 6 6 6 6 6 7 7 7 8 8 8 9 9 9 9 9 9 10 10 10 10 10 10
5 6 5 5 5 6 5 6 6 6 5 5 6 5 6 7 6 5 5 5 5 5 5 5 5 5 6 6 7 7 7 8 8 8 9 9 9 9 9 9 9 9 9 10
5 6 5 5 6 6 6 6 6 6 5 4 5 5 5 4 4 4 4 4 4 4 4 4 4 5 5 6 6 6 7 7 7 8 8 8 9 9 9 9 9 9 9 9
4 5 5 5 4 5 5 3 3 3 3 4 6 5 4 3 3 3 3 3 3 3 3 3 3 4 4 5 5 6 6 6 7 7 7 8 8 8 8 8 8 8 8 9
2 3 4 4 3 3 3 3 2 2 3 4 5 4 2 3 3 3 2 2 2 2 2 2 3 3 3 4 4 5 5 6 6 6 7 7 7 8 8 8 8 8 8 8
1 2 4 4 4 3 3 2 3 2 3 3 4 3 3 2 2 1 1 1 1 1 1 1 2 2 2 3 3 4 4 5 5 6 6 6 7 7 7 7 7 7 8 8
1 1 2 3 3 3 3 3 2 1 2 2 3 2 1 0 0 0 0 0 -0 -0 -0 0 1 1 1 2 2 3 4 4 5 5 5 6 6 6 6 6 7 7 7 7
1 -0 1 2 1 1 1 1 1 1 2 2 2 1 1 -0 -1 -1 -1 -0 -1 -1 -1 -1 -0 -0 1 1 1 2 3 4 4 4 5 5 5 5 6 6 6 6 6 7
0 -0 -1 1 1 1 1 0 0 -1 0 1 1 -0 -0 -1 -1 -1 -1 -1 -1 -2 -2 -2 -1 -1 -0 0 1 1 2 3 4 4 4 4 4 5 5 5 5 6 6 6
-1 -2 -2 -1 -0 -0 -0 -0 -0 -1 -1 -1 -0 -1 -0 -1 -1 -1 -2 -2 -2 -2 -2 -2 -2 -2 -1 -1 0 1 2 2 3 3 3 3 4 4 5 5 5 5 5 6
0 -2 -2 -2 -1 -1 -2 -1 -1 -2 -2 -2 -1 -2 -2 -2 -2 -2 -2 -3 -3 -3 -3 -3 -3 -3 -2 -1 -0 0 1 2 2 3 3 3 3 4 4 4 4 4 5 5
-1 -2 -2 -2 -1 -1 -2 -2 -2 -2 -2 -2 -2 -2 -3 -3 -3 -3 -3 -3 -4 -4 -4 -4 -4 -3 -3 -2 -1 -0 0 1 2 2 3 3 3 3 3 4 4 4 4 4
-2 -3 -3 -3 -1 -1 -2 -2 -3 -2 -2 -3 -3 -3 -3 -3 -3 -4 -4 -4 -4 -5 -5 -5 -5 -4 -3 -3 -2 -1 -0 1 1 2 2 2 3 3 3 3 3 3 3 3
-3 -4 -3 -3 -2 -2 -4 -4 -4 -4 -4 -4 -4 -4 -4 -4 -4 -5 -5 -5 -5 -6 -6 -6 -5 -5 -4 -3 -2 -2 -1 0 1 1 2 2 2 2 2 3 3 2 3 3
-4 -4 -4 -3 -3 -4 -4 -4 -4 -4 -4 -4 -5 -5 -5 -5 -5 -5 -5 -6 -6 -6 -6 -6 -6 -5 -4 -4 -3 -2 -1 -0 0 1 1 1 2 2 2 2 2 2 2 2
-3 -4 -4 -4 -4 -4 -4 -4 -5 -5 -5 -5 -5 -5 -5 -5 -5 -5 -5 -6 -6 -7 -6 -6 -6 -6 -5 -4 -3 -3 -2 -1 -1 -0 0 1 1 1 2 2 2 2 2 2
-4 -4 -5 -4 -4 -5 -5 -5 -4 -5 -5 -6 -6 -6 -6 -6 -6 -6 -6 -7 -7 -7 -7 -7 -6 -6 -5 -4 -4 -3 -3 -2 -2 -1 -0 0 0 1 1 1 1 1 1 1
-5 -5 -5 -5 -5 -5 -6 -5 -5 -6 -7 -7 -7 -7 -7 -7 -7 -7 -7 -7 -7 -7 -7 -7 -6 -6 -5 -5 -4 -4 -3 -3 -2 -2 -1 -1 -0 -0 0 0 0 1 1 1
-6 -6 -6 -5 -6 -6 -7 -6 -7 -7 -7 -7 -7 -8 -8 -8 -8 -8 -8 -8 -8 -8 -7 -7 -7 -6 -6 -5 -5 -4 -4 -4 -3 -2 -2 -1 -1 -1 -1 -0 -0 -0 -0 -0
-6 -7 -7 -7 -7 -7 -7 -7 -7 -8 -8 -8 -8 -8 -8 -8 -8 -8 -8 -8 -8 -8 -8 -8 -7 -7 -6 -6 -5 -5 -5 -4 -4 -3 -3 -2 -2 -2 -1 -1 -1 -1 -1 -1
-7 -7 -7 -7 -7 -7 -7 -7 -8 -8 -9 -9 -9 -9 -9 -9 -9 -9 -9 -9 -9 -9 -9 -8 -8 -8 -7 -6 -6 -6 -5 -5 -4 -4 -4 -3 -3 -2 -2 -2 -2 -1 -1 -1
-7 -8 -8 -8 -8 -8 -8 -8 -9 -9 -9 -9 -9 -9 -9 -9 -9 -9 -9 -10 -10 -9 -9 -9 -9 -8 -8 -7 -7 -6 -6 -5 -5 -5 -4 -4 -4 -3 -3 -3 -3 -2 -2 -2
-9 -9 -10 -9 -9 -9 -9 -9 -9 -10 -10 -10 -10 -10 -10 -10 -10 -10 -10 -10 -10 -10 -10 -9 -9 -9 -8 -8 -7 -7 -6 -6 -6 -6 -5 -5 -4 -4 -4 -4 -4 -3 -3 -3
Wind_Speed
3 2 4 5 7 8 9 9 11 10 6 6 8 9 6 5 4 4 3 2 2 1 0 1 1 2 2 2 3 4 6 6 6 5 5 5 4 4 4 4 7 8 8 8
1 3 6 6 6 8 9 11 11 8 6 6 7 9 5 5 4 2 2 2 1 0 1 3 3 2 2 2 2 3 4 6 6 5 4 4 4 3 3 4 6 7 7 8
2 3 5 6 6 8 9 8 9 8 8 6 6 7 6 4 1 1 2 2 2 2 2 3 3 2 2 2 2 2 3 4 5 5 5 4 4 3 2 3 4 4 7 7
4 4 4 5 6 7 8 7 8 7 5 4 4 4 4 3 2 0 2 4 4 4 4 4 3 3 1 1 1 1 2 2 3 5 6 7 5 5 3 3 3 4 6 6
3 3 4 5 6 7 6 8 9 8 7 6 6 5 3 3 1 1 3 4 4 4 4 4 3 2 1 1 1 0 1 1 2 4 6 7 5 4 4 4 5 4 4 5
4 2 2 5 7 5 6 6 6 6 4 6 7 6 1 1 1 2 4 5 6 6 5 5 4 3 3 2 2 1 1 0 2 3 4 6 7 6 6 5 5 4 3 4
4 1 1 3 5 4 5 2 1 2 4 5 4 4 1 4 5 5 6 6 6 7 6 6 5 4 4 3 2 1 0 0 1 2 3 5 6 7 7 6 6 5 4 3
4 3 2 2 2 3 4 1 1 3 3 2 2 3 3 6 7 8 8 8 9 9 9 8 6 4 3 3 2 1 1 1 1 2 3 4 4 4 4 5 5 5 4 4
4 4 3 3 2 3 3 3 4 3 4 3 2 2 4 9 11 11 10 10 10 10 10 9 8 6 5 4 3 1 1 1 1 2 2 3 4 4 4 5 4 4 4 3
4 5 4 3 2 3 3 3 2 2 3 3 2 1 2 6 9 11 11 10 10 10 10 10 9 8 6 5 4 3 2 1 2 2 2 3 4 4 4 5 5 5 5 5
4 3 4 2 1 3 3 2 3 3 3 2 2 1 5 6 8 9 9 10 10 10 10 9 9 8 6 5 4 4 2 1 0 2 2 2 3 4 4 5 5 5 5 6
4 3 4 2 1 3 2 2 2 2 3 3 2 1 5 7 7 8 10 11 10 10 9 9 10 10 8 6 5 4 3 1 1 1 1 2 2 4 5 5 5 5 5 5
3 3 3 1 1 3 3 3 3 3 2 3 2 0 4 9 10 10 10 10 10 10 10 10 10 10 10 9 6 5 3 2 1 0 1 2 2 3 4 4 4 5 5 5
3 2 2 3 3 3 4 5 4 2 2 3 3 4 6 9 10 11 10 10 10 9 10 11 10 10 10 10 8 6 3 2 2 1 1 2 2 3 3 4 4 5 5 5
3 2 3 5 5 3 4 5 4 2 3 3 4 4 5 8 9 9 9 10 11 11 11 12 11 11 11 11 10 7 4 3 2 1 1 1 1 2 3 4 4 4 4 5
3 3 4 5 5 3 3 4 3 3 3 4 5 4 5 7 8 9 10 11 11 11 12 12 12 12 12 11 10 8 5 4 2 1 1 1 1 2 3 3 4 4 4 4
2 2 2 3 4 4 3 2 1 1 2 3 4 5 7 9 9 10 9 10 10 12 12 12 12 11 11 10 10 8 7 4 2 1 1 1 1 2 3 3 4 4 4 4
1 2 2 3 3 2 1 2 3 1 2 3 4 6 7 7 8 7 6 8 11 12 12 12 11 12 11 9 9 8 7 4 3 2 1 1 2 2 2 3 4 4 3 4
2 1 2 2 2 2 1 3 3 2 2 5 6 8 9 8 7 4 8 10 11 11 11 10 10 10 10 9 9 7 6 5 3 3 3 1 1 2 3 3 3 3 3 3
1 0 1 2 2 2 2 5 6 2 1 7 8 8 9 9 6 6 10 12 12 11 10 10 10 9 9 9 8 7 6 4 3 4 3 2 0 2 3 3 2 3 3 3
2 2 2 3 2 1 3 7 5 1 3 7 7 7 7 5 5 9 11 11 11 11 11 10 9 8 8 8 7 6 6 6 4 3 3 2 1 1 2 2 2 3 3 3
2 2 1 2 2 2 5 5 3 2 4 6 7 7 7 8 9 10 11 11 12 12 11 10 9 8 8 8 6 6 7 7 4 3 3 3 2 0 1 2 2 3 4 4
0 0 1 1 1 1 3 2 3 4 5 5 6 7 7 8 9 10 10 10 11 11 11 10 9 10 9 8 7 7 7 6 5 4 4 3 2 2 1 2 3 3 3 4
1 1 1 1 1 2 2 3 5 5 5 6 7 7 7 8 9 9 9 9 10 10 10 9 10 10 10 9 8 8 7 7 5 5 4 4 3 3 3 2 2 2 2 3
2 1 1 2 3 3 2 5 6 6 6 7 7 7 8 8 9 8 8 8 8 9 9 9 9 9 10 10 9 9 8 7 6 5 4 4 4 3 3 3 3 2 2 2
1 0 1 2 2 2 3 4 6 6 7 7 8 8 8 7 8 8 7 7 7 8 8 9 9 9 9 10 10 10 9 8 7 5 5 4 3 3 3 3 4 6 4 5
Wind_Direction
221 238 247 253 247 268 279 278 277 277 277 253 250 257 252 264 257 253 252 231 208 208 245 40 51 97 113 126 139 153 151 149 144 144 146 144 144 145 137 122 127 133 137 130
230 255 280 296 294 285 280 278 281 290 296 275 263 265 249 244 233 231 236 233 193 14 7 18 31 68 121 124 138 147 150 155 151 151 150 150 143 136 131 124 124 133 134 130
257 308 306 302 301 292 274 265 276 282 297 279 273 269 239 228 210 344 18 35 55 53 33 19 29 32 57 85 128 150 151 155 153 143 130 126 120 114 119 134 143 135 131 130
275 309 315 312 304 290 281 291 289 286 278 260 224 259 225 215 210 9 29 33 31 31 20 16 23 25 40 66 89 137 143 151 154 155 153 151 151 154 165 152 144 136 132 131
289 324 322 306 308 299 290 307 286 268 261 270 246 250 259 187 193 49 29 21 15 22 16 9 8 6 9 39 63 98 120 136 150 162 161 156 152 148 141 143 139 138 131 129
281 310 329 321 310 290 312 303 279 249 234 245 229 219 276 14 332 21 18 18 14 11 8 3 11 16 14 36 47 38 64 149 162 158 159 161 158 153 149 157 157 152 146 138
294 276 23 351 334 332 335 339 298 233 213 235 207 192 83 37 39 34 23 19 18 15 8 4 7 9 11 17 29 18 24 247 174 169 168 165 161 161 160 162 160 158 154 150
311 295 8 14 341 309 289 278 238 248 248 276 201 183 100 45 36 33 32 23 17 16 11 2 355 357 6 8 11 23 318 251 198 190 185 163 159 165 161 156 154 162 166 157
314 294 335 351 347 336 306 272 275 276 275 262 219 128 82 28 25 23 22 18 9 7 8 0 357 2 3 2 356 352 298 267 217 213 190 168 165 165 158 154 151 156 155 146
320 292 299 331 336 338 308 302 305 272 275 261 232 164 25 19 13 14 13 10 6 4 5 1 1 359 358 353 350 352 339 284 217 210 198 189 176 168 161 158 158 158 154 148
328 294 299 337 15 345 338 318 306 282 260 266 264 65 31 34 14 7 6 6 3 2 360 356 355 355 350 353 351 354 345 346 271 207 201 184 175 161 156 161 161 155 150 149
346 311 291 285 69 30 1 332 317 280 294 288 280 110 36 28 17 14 7 1 358 360 359 358 358 356 354 350 346 348 344 348 308 216 182 184 179 163 155 157 153 149 150 152
337 325 314 302 33 24 5 344 332 305 293 292 270 240 14 13 13 12 4 359 359 360 0 359 359 354 350 345 343 340 341 342 331 293 162 168 167 158 158 156 152 149 150 151
332 273 244 265 302 325 321 328 336 343 282 295 289 311 340 356 0 1 357 357 357 359 359 356 353 347 344 343 341 338 332 332 318 255 162 162 164 159 155 155 154 148 148 149
342 285 284 293 303 302 307 319 329 300 281 274 305 317 336 350 353 350 349 353 355 355 354 351 346 342 340 342 342 336 329 321 310 245 174 172 156 147 145 145 147 144 148 153
338 298 307 291 277 301 315 333 330 310 303 298 313 318 354 353 353 350 350 350 349 347 345 342 340 338 337 338 337 337 331 323 311 255 198 168 147 145 149 150 148 149 150 149
308 306 295 281 309 318 320 335 354 344 339 318 309 319 342 346 349 344 341 345 343 341 338 336 334 332 332 333 333 332 330 327 324 283 192 157 157 155 154 156 152 155 157 152
275 295 266 280 317 275 206 46 38 352 355 7 358 352 347 337 326 330 350 355 345 339 335 332 330 330 330 332 334 332 337 340 350 351 338 163 166 163 152 152 157 157 155 155
255 266 281 277 276 252 119 30 10 332 317 20 358 347 344 335 322 351 9 356 339 331 327 323 323 323 326 332 335 337 344 348 355 351 344 330 188 168 156 151 157 155 153 154
307 246 265 283 286 273 6 344 325 297 265 8 357 346 344 349 340 325 340 338 336 335 332 329 326 328 332 334 337 342 343 347 350 340 333 332 298 178 168 165 168 158 156 159
310 275 263 272 260 285 350 327 340 33 305 342 351 348 347 344 315 315 329 335 336 336 337 338 336 337 335 335 339 343 342 341 336 341 347 354 1 169 170 161 162 154 152 148
320 310 306 296 263 279 354 14 32 323 336 347 351 352 346 333 330 334 336 337 340 342 345 349 347 344 343 345 348 348 341 336 347 9 12 13 17 55 143 142 147 150 149 149
267 281 303 244 235 337 29 39 15 8 349 348 346 342 341 334 334 336 338 340 342 345 347 350 351 350 352 355 358 352 342 348 4 21 21 17 22 49 97 132 142 145 145 148
343 4 293 291 281 359 25 34 20 9 352 341 342 339 337 332 332 334 340 342 345 349 350 353 356 358 358 358 1 359 356 3 15 22 17 19 33 50 62 72 93 123 135 139
327 332 285 268 309 338 4 15 1 350 346 342 340 338 336 334 333 336 339 341 344 346 350 353 357 358 357 0 3 2 3 9 18 21 19 21 28 48 58 59 54 65 76 132
12 202 254 266 337 318 307 341 348 343 339 337 335 334 337 336 331 334 336 339 342 345 349 352 354 355 355 360 2 1 1 8 15 16 18 24 31 39 51 64 56 49 59 64
Height
1482 1484 1484 1482 1481 1479 1477 1477 1475 1470 1468 1470 1471 1471 1471 1471 1471 1472 1472 1473 1475 1476 1477 1478 1478 1479 1481 1483 1484 1487 1489 1492 1495 1498 1501 1504 1507 1510 1513 1516 1519 1522 1525 1527
1483 1484 1482 1480 1479 1478 1478 1477 1475 1471 1468 1469 1470 1469 1468 1469 1470 1471 1471 1472 1474 1475 1476 1476 1476 1477 1478 1480 1482 1484 1487 1490 1492 1495 1498 1502 1505 1508 1511 1514 1517 1520 1523 1526
1484 1483 1480 1480 1479 1479 1476 1477 1475 1474 1470 1468 1470 1470 1467 1466 1467 1469 1470 1471 1473 1474 1475 1475 1475 1475 1476 1478 1480 1482 1485 1487 1490 1493 1496 1500 1503 1506 1509 1511 1514 1517 1520 1523
1482 1481 1480 1480 1479 1479 1477 1473 1473 1473 1476 1476 1471 1477 1466 1466 1467 1468 1470 1471 1472 1473 1474 1474 1474 1474 1475 1476 1478 1480 1482 1485 1487 1490 1493 1496 1499 1502 1505 1508 1511 1514 1518 1521
1483 1481 1481 1481 1480 1479 1476 1473 1472 1472 1475 1476 1471 1475 1470 1465 1467 1470 1471 1472 1472 1473 1473 1473 1473 1474 1474 1475 1476 1478 1480 1482 1484 1487 1490 1493 1496 1499 1503 1506 1509 1511 1515 1518
1482 1481 1482 1482 1479 1477 1475 1473 1470 1469 1473 1479 1469 1473 1473 1472 1472 1472 1473 1473 1473 1472 1472 1473 1472 1473 1473 1474 1475 1476 1478 1480 1482 1484 1487 1490 1493 1496 1500 1503 1505 1508 1511 1515
1484 1482 1482 1482 1481 1478 1478 1481 1483 1481 1479 1474 1463 1469 1478 1475 1475 1475 1475 1474 1474 1473 1472 1471 1471 1471 1471 1472 1473 1474 1476 1477 1479 1482 1485 1487 1490 1493 1497 1499 1502 1504 1508 1511
1492 1488 1484 1483 1485 1485 1482 1483 1490 1488 1477 1469 1463 1470 1481 1478 1477 1476 1476 1476 1475 1474 1473 1472 1471 1471 1470 1470 1471 1472 1473 1475 1477 1479 1482 1484 1487 1491 1494 1496 1499 1501 1505 1508
1498 1492 1485 1484 1484 1485 1484 1485 1482 1485 1479 1477 1470 1473 1479 1478 1478 1478 1477 1476 1475 1474 1473 1472 1471 1470 1469 1469 1469 1470 1471 1472 1474 1476 1479 1481 1484 1487 1490 1493 1496 1499 1502 1505
1500 1498 1489 1486 1485 1485 1486 1484 1486 1487 1485 1477 1472 1477 1485 1485 1484 1481 1480 1478 1477 1476 1474 1473 1471 1470 1468 1468 1468 1468 1469 1470 1471 1474 1476 1478 1481 1484 1487 1490 1493 1496 1499 1502
1501 1502 1494 1490 1490 1491 1490 1489 1489 1487 1483 1483 1480 1491 1488 1488 1487 1485 1483 1481 1480 1477 1475 1474 1471 1470 1468 1467 1466 1466 1466 1467 1469 1471 1473 1475 1477 1481 1484 1487 1490 1493 1495 1498
1503 1503 1499 1493 1492 1491 1491 1492 1493 1497 1491 1484 1485 1497 1490 1489 1488 1487 1485 1483 1481 1479 1477 1474 1472 1469 1467 1465 1464 1464 1464 1465 1466 1468 1470 1472 1474 1477 1480 1483 1486 1489 1492 1495
1505 1506 1506 1498 1497 1496 1495 1494 1494 1494 1494 1492 1492 1497 1490 1489 1488 1488 1486 1484 1482 1480 1477 1474 1472 1469 1467 1464 1462 1462 1462 1462 1464 1466 1468 1469 1472 1474 1477 1480 1483 1486 1489 1492
1504 1507 1508 1506 1501 1500 1500 1498 1495 1496 1499 1497 1495 1497 1494 1492 1491 1489 1488 1486 1483 1480 1477 1474 1471 1469 1466 1464 1462 1460 1460 1461 1462 1464 1465 1467 1469 1471 1474 1477 1480 1483 1486 1488
1506 1507 1504 1502 1499 1498 1500 1500 1498 1499 1498 1500 1498 1498 1498 1496 1495 1492 1489 1486 1483 1480 1478 1475 1472 1468 1465 1462 1460 1459 1458 1459 1460 1461 1463 1465 1467 1469 1472 1474 1477 1480 1483 1485
1508 1509 1506 1503 1498 1497 1499 1499 1500 1499 1499 1499 1498 1500 1498 1497 1495 1492 1489 1486 1484 1481 1478 1475 1471 1468 1464 1461 1459 1457 1457 1457 1458 1459 1460 1463 1465 1467 1469 1472 1474 1477 1480 1482
1510 1510 1509 1504 1497 1496 1503 1503 1503 1504 1503 1503 1503 1504 1500 1497 1495 1493 1490 1488 1485 1481 1478 1474 1471 1467 1464 1461 1458 1456 1455 1455 1456 1457 1458 1461 1463 1465 1467 1469 1472 1474 1477 1479
1511 1511 1509 1506 1504 1510 1510 1504 1504 1504 1504 1504 1504 1503 1501 1499 1496 1493 1491 1488 1484 1481 1477 1473 1469 1466 1463 1460 1457 1455 1454 1454 1454 1455 1456 1459 1461 1462 1464 1466 1469 1471 1474 1476
1509 1510 1509 1507 1507 1505 1506 1505 1506 1506 1505 1505 1504 1502 1500 1497 1493 1491 1490 1488 1485 1481 1476 1472 1468 1464 1461 1459 1456 1455 1453 1452 1452 1453 1454 1456 1458 1459 1461 1463 1466 1468 1471 1474
1509 1509 1512 1508 1508 1510 1511 1508 1505 1506 1506 1506 1504 1503 1501 1497 1496 1493 1489 1486 1482 1478 1474 1469 1465 1462 1459 1457 1455 1453 1451 1451 1451 1451 1452 1454 1455 1457 1458 1460 1463 1466 1468 1471
1513 1512 1513 1511 1511 1511 1513 1508 1505 1511 1513 1509 1506 1504 1502 1500 1500 1495 1490 1485 1480 1476 1471 1467 1463 1460 1457 1455 1453 1451 1450 1449 1449 1450 1450 1452 1453 1454 1456 1458 1460 1463 1466 1468
1517 1516 1514 1513 1514 1518 1513 1509 1513 1514 1511 1509 1506 1504 1502 1500 1497 1493 1489 1484 1479 1474 1469 1465 1461 1457 1455 1453 1452 1450 1449 1448 1448 1448 1449 1449 1451 1452 1454 1456 1458 1460 1463 1465
1517 1518 1517 1518 1520 1516 1514 1513 1513 1512 1510 1508 1506 1504 1501 1498 1495 1491 1487 1483 1478 1473 1469 1465 1461 1457 1454 1452 1450 1449 1448 1448 1447 1447 1447 1448 1449 1450 1452 1454 1456 1458 1460 1462
1517 1516 1517 1516 1515 1514 1514 1513 1512 1511 1510 1508 1505 1503 1500 1497 1494 1490 1486 1482 1478 1473 1469 1465 1461 1457 1453 1452 1450 1449 1448 1447 1446 1446 1446 1447 1448 1449 1451 1452 1454 1456 1458 1460
1518 1518 1517 1517 1515 1514 1513 1512 1511 1510 1508 1506 1504 1502 1499 1496 1492 1489 1485 1482 1478 1474 1470 1466 1462 1459 1455 1453 1450 1449 1448 1447 1446 1446 1446 1446 1447 1448 1449 1451 1453 1455 1457 1459
1519 1520 1520 1518 1516 1516 1513 1512 1511 1509 1507 1505 1502 1499 1497 1495 1491 1488 1485 1482 1478 1474 1470 1467 1463 1460 1457 1454 1452 1450 1449 1447 1446 1446 1446 1447 1447 1448 1449 1451 1452 1454 1456 1458